Tracking 32136 objects as of 12-Nov-2025
HD Live streaming from Space Station
objects crossing your sky now

STARLINK-30366

Track STARLINK-30366 now!
10-day predictions
STARLINK-30366 is classified as:


NORAD ID: 57749
Int'l Code: 2023-131T
Perigee: 565.4 km
Apogee: 567.1 km
Inclination: 43.0 °
Period: 95.8 minutes
Semi major axis: 6937 km
RCS: Unknown
Launch date: September 1, 2023
Source: United States (US)
Launch site: AIR FORCE EASTERN TEST RANGE (AFETR)
Your satellite tracking list
Your tracking list is empty




NASA's NSSDC Master Catalog

Two Line Element Set (TLE):
1 57749U 23131T   25314.45736177 -.00000294  00000-0 -67042-5 0  9998
2 57749  43.0038  99.2236 0001227 263.4205  96.6498 15.02531191121999
Source of the keplerian elements: AFSPC